Regional Weather Roundup
Issued by NWS

Home | Current Version | Previous Version | Graphics & Text | Print | Product List | Glossary On
Versions: 1 2 3 4 5 6 7 8 9 10 11 12 13 14 15 16 17 18 19 20 21 22 23 24 25 26 27 28 29 30 31 32 33 34 35 36 37 38 39 40 41 42 43 44 45 46 47 48 49 50
000
ASUS43 KFSD 221810
RWRSD

WEATHER ROUNDUP FOR SOUTH DAKOTA
NATIONAL WEATHER SERVICE SIOUX FALLS SD
1200 PM CST SAT NOV 22 2014

NOTE: "FAIR" INDICATES FEW OR NO CLOUDS BELOW 12,000 FEET WITH NO
SIGNIFICANT WEATHER AND/OR OBSTRUCTIONS TO VISIBILITY.


SDZ001>005-009-010-012>017-221900-
NORTHWEST AND NORTH CENTRAL SOUTH DAKOTA

CITY           SKY/WX    TMP DP  RH WIND       PRES   REMARKS
BUFFALO          N/A     45  29  53 W3        29.34F
FAITH            N/A     41  28  60 SW8       29.42F
MOBRIDGE       SUNNY     38  30  73 SE12      29.42F
$$

SDZ012>016-024>037-041>051-057-063-072>074-221900-
SOUTHWEST AND SOUTH CENTRAL SOUTH DAKOTA

CITY           SKY/WX    TMP DP  RH WIND       PRES   REMARKS
RAPID CTY ARPT PTSUNNY   53  25  33 W17       29.45S
PIERRE         MOSUNNY   37  29  72 E6        29.45F
CUSTER         PTSUNNY   42  24  49 W21G30    29.54S
ELLSWORTH AFB  PTSUNNY   53  28  37 W2        29.44S
PHILIP         PTSUNNY   61  28  28 SW13      29.45F
PINE RIDGE     CLOUDY    47  27  45 SW12      29.54F
SPEARFISH      FAIR      50  25  37 SW22G36   29.45S
WINNER         FAIR      51  28  41 SW22G28   29.51F
$$

SDZ004>011-016>023-039-040-221900-
NORTHEAST SOUTH DAKOTA

CITY           SKY/WX    TMP DP  RH WIND       PRES   REMARKS
ABERDEEN       PTSUNNY   33  27  78 S8        29.54F WCI  26
WATERTOWN      MOSUNNY   31  28  89 S15       29.58F WCI  20
SISSETON         N/A     36  30  79 SE12      29.56F
$$

SDZ017-020-022-023-036>040-048>070-221900-
SOUTHEAST SOUTH DAKOTA

CITY           SKY/WX    TMP DP  RH WIND       PRES   REMARKS
SIOUX FALLS    PTSUNNY   38  34  85 S14       29.65F
HURON          MOSUNNY   37  30  75 SE12      29.54F
CHAMBERLAIN    CLOUDY    43  29  57 S8        29.52F
MITCHELL       MOSUNNY   41  33  73 S12       29.58F
YANKTON        SUNNY     46  34  61 SE12      29.65F
$$

ABBREVIATIONS USED IN REMARKS
   TC - TEMPERATURE IN CELSIUS
  WCI - WIND CHILL INDEX
   HX - HEAT INDEX
  VSB - VISIBILITY



USA.gov is the U.S. government's official web portal to all federal, state and local government web resources and services.